Time,TemperatureF,DewpointF,PressureIn,WindDirection,WindDirectionDegrees,WindSpeedMPH,WindSpeedGustMPH,Humidity,HourlyPrecipIn,Conditions,Clouds,dailyrainin,SoftwareType,DateUTC
2013-03-06 00:08:00,41.3,33.0,29.66,WNW,287,7.0,13.0,73,0.00,,,0.00,weatherlink.com 1.10,2013-03-06 05:08:00,
2013-03-06 00:23:00,40.9,31.0,29.66,NW,321,8.0,16.0,67,0.00,,,0.00,weatherlink.com 1.10,2013-03-06 05:23:00,
2013-03-06 00:38:00,40.2,31.0,29.67,SW,225,1.0,14.0,69,0.00,,,0.00,weatherlink.com 1.10,2013-03-06 05:38:00,
2013-03-06 00:53:00,39.7,28.0,29.68,West,278,3.0,12.0,64,0.00,,,0.00,weatherlink.com 1.10,2013-03-06 05:53:00,
2013-03-06 01:08:00,39.6,27.0,29.68,WNW,286,8.0,14.0,62,0.00,,,0.00,weatherlink.com 1.10,2013-03-06 06:08:00,
2013-03-06 01:23:00,39.5,26.0,29.69,WNW,296,11.0,17.0,60,0.00,,,0.00,weatherlink.com 1.10,2013-03-06 06:23:00,
2013-03-06 01:38:00,39.1,26.0,29.69,WNW,298,5.0,12.0,60,0.00,,,0.00,weatherlink.com 1.10,2013-03-06 06:38:00,
2013-03-06 01:53:00,38.7,26.0,29.70,WNW,300,3.0,14.0,60,0.00,,,0.00,weatherlink.com 1.10,2013-03-06 06:53:00,
2013-03-06 02:08:00,38.8,25.0,29.70,NW,304,6.0,19.0,57,0.00,,,0.00,weatherlink.com 1.10,2013-03-06 07:08:00,
2013-03-06 02:23:00,38.4,24.0,29.70,WNW,286,10.0,19.0,57,0.00,,,0.00,weatherlink.com 1.10,2013-03-06 07:23:00,
2013-03-06 02:38:00,38.0,24.0,29.70,WNW,287,9.0,22.0,57,0.00,,,0.00,weatherlink.com 1.10,2013-03-06 07:38:00,
2013-03-06 02:53:00,37.3,24.0,29.70,West,273,6.0,14.0,60,0.00,,,0.00,weatherlink.com 1.10,2013-03-06 07:53:00,
2013-03-06 03:08:00,36.9,24.0,29.70,NW,304,9.0,16.0,59,0.00,,,0.00,weatherlink.com 1.10,2013-03-06 08:08:00,
2013-03-06 03:23:00,37.2,22.0,29.70,WNW,301,9.0,20.0,55,0.00,,,0.00,weatherlink.com 1.10,2013-03-06 08:23:00,
2013-03-06 03:38:00,36.7,22.0,29.71,WNW,292,6.0,17.0,55,0.00,,,0.00,weatherlink.com 1.10,2013-03-06 08:38:00,
2013-03-06 03:54:00,36.2,21.0,29.71,WNW,292,14.0,20.0,55,0.00,,,0.00,weatherlink.com 1.10,2013-03-06 08:54:00,
2013-03-06 04:08:00,35.8,22.0,29.70,NW,305,5.0,20.0,57,0.00,,,0.00,weatherlink.com 1.10,2013-03-06 09:08:00,
2013-03-06 04:23:00,35.5,22.0,29.72,West,279,8.0,18.0,58,0.00,,,0.00,weatherlink.com 1.10,2013-03-06 09:23:00,
2013-03-06 04:38:00,34.9,22.0,29.73,West,267,10.0,13.0,60,0.00,,,0.00,weatherlink.com 1.10,2013-03-06 09:38:00,
2013-03-06 04:53:00,34.2,22.0,29.73,West,269,7.0,10.0,62,0.00,,,0.00,weatherlink.com 1.10,2013-03-06 09:53:00,
2013-03-06 05:09:00,33.9,22.0,29.73,West,269,14.0,14.0,61,0.00,,,0.00,weatherlink.com 1.10,2013-03-06 10:09:00,
2013-03-06 05:24:00,33.4,21.0,29.73,WNW,287,5.0,12.0,60,0.00,,,0.00,weatherlink.com 1.10,2013-03-06 10:24:00,
2013-03-06 05:39:00,33.5,20.0,29.73,NNW,333,11.0,18.0,58,0.00,,,0.00,weatherlink.com 1.10,2013-03-06 10:39:00,
2013-03-06 05:54:00,33.4,19.0,29.74,NW,317,10.0,19.0,57,0.00,,,0.00,weatherlink.com 1.10,2013-03-06 10:54:00,
2013-03-06 06:09:00,33.3,19.0,29.75,WNW,300,4.0,19.0,56,0.00,,,0.00,weatherlink.com 1.10,2013-03-06 11:09:00,
2013-03-06 06:24:00,32.9,19.0,29.76,WNW,283,13.0,20.0,56,0.01,,,0.01,weatherlink.com 1.10,2013-03-06 11:24:00,
2013-03-06 06:39:00,32.8,19.0,29.75,NW,322,8.0,22.0,57,0.01,,,0.01,weatherlink.com 1.10,2013-03-06 11:39:00,
2013-03-06 06:54:00,32.6,19.0,29.75,West,279,6.0,15.0,58,0.01,,,0.01,weatherlink.com 1.10,2013-03-06 11:54:00,
2013-03-06 07:09:00,32.6,20.0,29.76,West,260,5.0,14.0,59,0.01,,,0.01,weatherlink.com 1.10,2013-03-06 12:09:00,
2013-03-06 07:24:00,32.9,20.0,29.76,West,259,15.0,23.0,59,0.00,,,0.01,weatherlink.com 1.10,2013-03-06 12:24:00,
2013-03-06 07:39:00,33.7,21.0,29.77,West,271,6.0,12.0,59,0.00,,,0.01,weatherlink.com 1.10,2013-03-06 12:39:00,
2013-03-06 07:54:00,34.2,21.0,29.77,West,266,12.0,14.0,59,0.00,,,0.01,weatherlink.com 1.10,2013-03-06 12:54:00,
2013-03-06 08:09:00,35.3,20.0,29.78,NW,313,7.0,25.0,55,0.00,,,0.01,weatherlink.com 1.10,2013-03-06 13:09:00,
2013-03-06 08:24:00,35.4,20.0,29.79,WNW,293,5.0,19.0,53,0.00,,,0.01,weatherlink.com 1.10,2013-03-06 13:24:00,
2013-03-06 08:39:00,36.5,20.0,29.79,WNW,289,14.0,23.0,51,0.00,,,0.01,weatherlink.com 1.10,2013-03-06 13:39:00,
2013-03-06 08:54:00,36.8,20.0,29.79,WSW,255,10.0,29.0,50,0.00,,,0.01,weatherlink.com 1.10,2013-03-06 13:54:00,
2013-03-06 09:09:00,37.5,20.0,29.80,West,269,12.0,25.0,50,0.00,,,0.01,weatherlink.com 1.10,2013-03-06 14:09:00,
2013-03-06 09:24:00,38.4,21.0,29.80,WNW,298,16.0,23.0,49,0.00,,,0.01,weatherlink.com 1.10,2013-03-06 14:24:00,
2013-03-06 09:39:00,39.0,21.0,29.80,WNW,286,6.0,24.0,49,0.00,,,0.01,weatherlink.com 1.10,2013-03-06 14:39:00,
2013-03-06 09:54:00,39.6,20.0,29.82,WNW,298,12.0,22.0,46,0.00,,,0.01,weatherlink.com 1.10,2013-03-06 14:54:00,
2013-03-06 10:09:00,40.1,20.0,29.82,WNW,296,10.0,22.0,45,0.00,,,0.01,weatherlink.com 1.10,2013-03-06 15:09:00,
2013-03-06 10:24:00,40.8,22.0,29.83,NNW,338,8.0,19.0,47,0.00,,,0.01,weatherlink.com 1.10,2013-03-06 15:24:00,
2013-03-06 10:40:00,41.5,22.0,29.83,West,259,13.0,18.0,46,0.00,,,0.01,weatherlink.com 1.10,2013-03-06 15:40:00,
2013-03-06 10:55:00,41.5,21.0,29.84,NW,306,8.0,20.0,45,0.00,,,0.01,weatherlink.com 1.10,2013-03-06 15:55:00,
2013-03-06 11:10:00,41.9,22.0,29.85,NW,311,6.0,18.0,45,0.00,,,0.01,weatherlink.com 1.10,2013-03-06 16:10:00,
2013-03-06 11:25:00,42.9,22.0,29.86,West,276,9.0,17.0,44,0.00,,,0.01,weatherlink.com 1.10,2013-03-06 16:25:00,
2013-03-06 11:40:00,43.7,23.0,29.86,North,355,11.0,17.0,44,0.00,,,0.01,weatherlink.com 1.10,2013-03-06 16:40:00,
2013-03-06 11:55:00,43.7,24.0,29.86,NW,304,10.0,17.0,46,0.00,,,0.01,weatherlink.com 1.10,2013-03-06 16:55:00,
2013-03-06 12:10:00,43.4,22.0,29.87,WNW,282,4.0,14.0,43,0.00,,,0.01,weatherlink.com 1.10,2013-03-06 17:10:00,
2013-03-06 12:25:00,43.4,23.0,29.87,WNW,288,10.0,16.0,44,0.00,,,0.01,weatherlink.com 1.10,2013-03-06 17:25:00,
2013-03-06 12:40:00,43.7,23.0,29.86,West,277,6.0,15.0,45,0.00,,,0.01,weatherlink.com 1.10,2013-03-06 17:40:00,
2013-03-06 12:55:00,44.8,24.0,29.86,WNW,286,8.0,19.0,45,0.00,,,0.01,weatherlink.com 1.10,2013-03-06 17:55:00,
2013-03-06 13:10:00,43.9,24.0,29.88,WNW,294,14.0,17.0,46,0.00,,,0.01,weatherlink.com 1.10,2013-03-06 18:10:00,
2013-03-06 13:25:00,45.5,25.0,29.88,WNW,282,9.0,17.0,45,0.00,,,0.01,weatherlink.com 1.10,2013-03-06 18:25:00,
2013-03-06 13:40:00,45.2,25.0,29.88,WNW,297,6.0,21.0,46,0.00,,,0.01,weatherlink.com 1.10,2013-03-06 18:40:00,
2013-03-06 13:55:00,42.9,25.0,29.88,West,271,12.0,20.0,49,0.00,,,0.01,weatherlink.com 1.10,2013-03-06 18:55:00,
2013-03-06 14:10:00,43.4,25.0,29.89,WNW,294,8.0,17.0,49,0.00,,,0.01,weatherlink.com 1.10,2013-03-06 19:10:00,
2013-03-06 14:25:00,42.9,25.0,29.90,NW,309,6.0,11.0,50,0.00,,,0.01,weatherlink.com 1.10,2013-03-06 19:25:00,
2013-03-06 14:40:00,43.8,25.0,29.91,NW,325,2.0,13.0,48,0.00,,,0.01,weatherlink.com 1.10,2013-03-06 19:40:00,
2013-03-06 14:55:00,44.4,26.0,29.91,North,360,11.0,14.0,48,0.00,,,0.01,weatherlink.com 1.10,2013-03-06 19:55:00,
2013-03-06 15:10:00,44.8,24.0,29.92,NW,313,3.0,14.0,45,0.00,,,0.01,weatherlink.com 1.10,2013-03-06 20:10:00,
2013-03-06 15:25:00,45.1,25.0,29.92,SW,234,7.0,14.0,45,0.00,,,0.01,weatherlink.com 1.10,2013-03-06 20:25:00,
2013-03-06 15:40:00,45.0,25.0,29.93,West,279,12.0,16.0,46,0.00,,,0.01,weatherlink.com 1.10,2013-03-06 20:40:00,
2013-03-06 15:55:00,44.3,25.0,29.94,West,273,13.0,20.0,46,0.00,,,0.01,weatherlink.com 1.10,2013-03-06 20:55:00,
2013-03-06 16:10:00,44.3,25.0,29.95,NNW,333,4.0,14.0,46,0.00,,,0.01,weatherlink.com 1.10,2013-03-06 21:10:00,
2013-03-06 16:25:00,44.3,25.0,29.95,West,260,10.0,15.0,46,0.00,,,0.01,weatherlink.com 1.10,2013-03-06 21:25:00,
2013-03-06 16:40:00,44.4,25.0,29.96,NW,317,3.0,13.0,46,0.00,,,0.01,weatherlink.com 1.10,2013-03-06 21:40:00,
2013-03-06 16:55:00,44.3,26.0,29.97,NE,34,4.0,14.0,48,0.00,,,0.01,weatherlink.com 1.10,2013-03-06 21:55:00,
2013-03-06 17:10:00,43.5,26.0,29.98,NE,34,7.0,12.0,50,0.00,,,0.01,weatherlink.com 1.10,2013-03-06 22:10:00,
2013-03-06 17:25:00,42.9,25.0,30.00,NNW,346,6.0,13.0,49,0.00,,,0.01,weatherlink.com 1.10,2013-03-06 22:25:00,
2013-03-06 17:40:00,41.3,25.0,30.01,NNW,347,7.0,15.0,52,0.00,,,0.01,weatherlink.com 1.10,2013-03-06 22:40:00,
2013-03-06 17:55:00,39.8,25.0,30.02,NNE,30,9.0,12.0,55,0.00,,,0.01,weatherlink.com 1.10,2013-03-06 22:55:00,
2013-03-06 18:10:00,38.7,24.0,30.03,North,5,3.0,7.0,57,0.00,,,0.01,weatherlink.com 1.10,2013-03-06 23:10:00,
2013-03-06 18:25:00,37.8,24.0,30.05,NNW,327,6.0,9.0,59,0.00,,,0.01,weatherlink.com 1.10,2013-03-06 23:25:00,
2013-03-06 18:41:00,37.1,24.0,30.06,NNE,16,4.0,10.0,60,0.00,,,0.01,weatherlink.com 1.10,2013-03-06 23:41:00,
2013-03-06 18:56:00,36.5,24.0,30.06,NE,53,6.0,8.0,62,0.00,,,0.01,weatherlink.com 1.10,2013-03-06 23:56:00,
2013-03-06 19:11:00,36.1,24.0,30.07,WNW,298,3.0,7.0,63,0.00,,,0.01,weatherlink.com 1.10,2013-03-07 00:11:00,
2013-03-06 19:26:00,36.0,24.0,30.07,North,9,2.0,12.0,63,0.00,,,0.01,weatherlink.com 1.10,2013-03-07 00:26:00,
2013-03-06 19:41:00,35.9,24.0,30.07,North,5,1.0,11.0,63,0.00,,,0.01,weatherlink.com 1.10,2013-03-07 00:41:00,
2013-03-06 19:56:00,35.6,24.0,30.07,North,355,3.0,8.0,63,0.00,,,0.01,weatherlink.com 1.10,2013-03-07 00:56:00,
2013-03-06 20:11:00,35.3,24.0,30.07,NW,310,3.0,4.0,64,0.00,,,0.01,weatherlink.com 1.10,2013-03-07 01:11:00,
2013-03-06 20:26:00,35.2,24.0,30.07,NNW,344,1.0,8.0,64,0.00,,,0.01,weatherlink.com 1.10,2013-03-07 01:26:00,
2013-03-06 20:41:00,34.7,24.0,30.07,WNW,291,2.0,4.0,65,0.00,,,0.01,weatherlink.com 1.10,2013-03-07 01:41:00,
2013-03-06 20:56:00,34.1,24.0,30.08,WSW,247,1.0,5.0,67,0.00,,,0.01,weatherlink.com 1.10,2013-03-07 01:56:00,
2013-03-06 21:11:00,33.9,24.0,30.08,WSW,243,1.0,5.0,68,0.00,,,0.01,weatherlink.com 1.10,2013-03-07 02:11:00,
2013-03-06 21:26:00,33.2,24.0,30.09,WNW,290,2.0,4.0,69,0.00,,,0.01,weatherlink.com 1.10,2013-03-07 02:26:00,
2013-03-06 21:41:00,33.8,24.0,30.09,NW,317,2.0,4.0,68,0.00,,,0.01,weatherlink.com 1.10,2013-03-07 02:41:00,
2013-03-06 21:56:00,33.6,24.0,30.09,West,279,0.0,2.0,68,0.00,,,0.01,weatherlink.com 1.10,2013-03-07 02:56:00,
2013-03-06 22:11:00,32.4,24.0,30.10,West,279,0.0,2.0,70,0.00,,,0.01,weatherlink.com 1.10,2013-03-07 03:11:00,
2013-03-06 22:26:00,32.8,24.0,30.11,NNW,336,1.0,3.0,70,0.00,,,0.01,weatherlink.com 1.10,2013-03-07 03:26:00,
2013-03-06 22:41:00,33.3,24.0,30.11,NW,321,1.0,4.0,69,0.00,,,0.01,weatherlink.com 1.10,2013-03-07 03:41:00,
2013-03-06 22:56:00,32.8,24.0,30.11,WNW,294,0.0,3.0,70,0.00,,,0.01,weatherlink.com 1.10,2013-03-07 03:56:00,
2013-03-06 23:11:00,30.7,24.0,30.12,West,265,2.0,3.0,75,0.00,,,0.01,weatherlink.com 1.10,2013-03-07 04:11:00,
2013-03-06 23:26:00,31.8,24.0,30.12,WNW,291,3.0,3.0,73,0.00,,,0.01,weatherlink.com 1.10,2013-03-07 04:26:00,
2013-03-06 23:41:00,31.5,24.0,30.12,West,279,2.0,2.0,73,0.00,,,0.01,weatherlink.com 1.10,2013-03-07 04:41:00,
2013-03-06 23:56:00,31.2,23.0,30.12,NNW,348,0.0,2.0,73,0.00,,,0.01,weatherlink.com 1.10,2013-03-07 04:56:00,